Starlink 3146

operational
NORAD ID: 49414 Int'l Des: 2021-104 Owner: SPXS Country: US Constellation: starlink
LEOCIRCULAR

About Starlink 3146

Description loading...

Live Position

Loading 3D Globe...

Upcoming Passes

Altitude History

Altitude vs Time

uPlot chart will show altitude changes over time

Two-Line Element Set

1 49414U 21104G 25303.81882088 .00000069 00000-0 22449-4 0 9996
2 49414 53.2157 92.1326 0001321 87.6939 272.4205 15.08841909219020
Epoch: Oct 30, 2025 • Age: 8 hours

Current Status

Altitude 545.4 km
Velocity 7.60 km/s
Sub-Earth Point 53.32°N, 83.97°E
Launch Date Nov 13, 2021
Age 3.9 years
Type internet

Technical Details

Classification Payload
Mass 290.00 kg
Dry Mass 270.00 kg
Total Mass 290.00 kg
Length 0.20 m
Diameter 2.80 m
Span 9.00 m
Shape Box + pan
Manufacturer SPXS
Bus Type Starlink
Phase Status In Orbit
Owner/State SPXS/US

Large Constellations

Loading constellations...